Tracking 18673 objects as of 27-June-2017
HD Live streaming from Space Station
objects crossing your sky now

GONETS D1M 1

Track GONETS D1M 1 now!
10-day predictions
GONETS D1M 1 is classified as:


NORAD ID: 28909
Int'l Code: 2005-048B
Perigee: 1,445.8 km
Apogee: 1,454.5 km
Inclination: 82.5 °
Period: 114.7 minutes
Semi major axis: 7821 km
RCS: 1.6605 m2 (large)
Launch date: December 21, 2005
Source: Commonwealth of Independent States (former USSR) (CIS)
Launch site: PLESETSK MISSILE AND SPACE COMPLEX (PKMTR)
Your satellite tracking list
Your tracking list is empty





NASA's NSSDC Master Catalog

Two Line Element Set (TLE):
1 28909U 05048B   17177.82685396 +.00000060 +00000-0 +30681-3 0  9992
2 28909 082.4696 244.6269 0005561 270.7730 089.2718 12.55164618527504
Source of the keplerian elements: AFSPC